Voltar ao catálogo

COSMOS 839 DEB

AtivoUNKNOWN
NORAD 36300·DEBRIS·🇷🇺 Russia

Lançado Jul 8, 1976 de Plesetsk Cosmodrome

Loading…

Próximas Passagens (próximas 24 horas)

TLE

AtualizadoSource: Space-Track

Época: Sep 14, 2026, 02:31 UTC

1 36300U 76067BZ  26257.10550708  .00000080  00000-0  48567-3 0  9997
2 36300  65.6814 144.5176 0679970   4.2855 141.9761 12.36225714771955

Acompanhe COSMOS 839 DEB em tempo real com AllMySat

Download on the App Store